TimeEST,TemperatureF,Dew PointF,Humidity,Sea Level PressureIn,VisibilityMPH,Wind Direction,Wind SpeedMPH,Gust SpeedMPH,PrecipitationIn,Events,Conditions,WindDirDegrees,DateUTC
12:55 AM,-0.0,-7.1,72,30.60,10.0,East,3.5,-,N/A,,Clear,80,2014-03-06 05:55:00
1:55 AM,-2.0,-8.0,76,30.58,10.0,East,3.5,-,N/A,,Clear,80,2014-03-06 06:55:00
2:55 AM,-2.0,-8.0,76,30.59,10.0,East,4.6,-,N/A,,Clear,100,2014-03-06 07:55:00
3:55 AM,-4.0,-9.0,79,30.59,10.0,ENE,3.5,-,N/A,,Clear,70,2014-03-06 08:55:00
4:55 AM,-4.0,-9.9,76,30.57,10.0,East,5.8,-,N/A,,Clear,90,2014-03-06 09:55:00
5:55 AM,-4.0,-9.9,76,30.56,10.0,East,3.5,-,N/A,,Clear,100,2014-03-06 10:55:00
6:55 AM,-4.0,-9.9,76,30.55,9.0,East,4.6,-,N/A,,Clear,100,2014-03-06 11:55:00
7:55 AM,-4.0,-9.0,79,30.54,10.0,East,6.9,-,N/A,,Clear,80,2014-03-06 12:55:00
8:55 AM,1.0,-5.1,75,30.55,10.0,East,4.6,-,N/A,,Clear,80,2014-03-06 13:55:00
9:55 AM,9.0,-0.0,67,30.51,10.0,SE,10.4,-,N/A,,Clear,130,2014-03-06 14:55:00
10:55 AM,12.9,1.9,62,30.49,10.0,SE,11.5,-,N/A,,Clear,130,2014-03-06 15:55:00
11:55 AM,17.1,3.0,54,30.44,10.0,ESE,9.2,-,N/A,,Clear,110,2014-03-06 16:55:00
12:55 PM,21.0,6.1,53,30.40,10.0,South,13.8,-,N/A,,Clear,170,2014-03-06 17:55:00
1:55 PM,21.0,7.0,55,30.36,10.0,SE,17.3,-,N/A,,Clear,130,2014-03-06 18:55:00
2:55 PM,21.9,8.1,55,30.32,10.0,SE,16.1,24.2,N/A,,Clear,130,2014-03-06 19:55:00
3:55 PM,21.9,10.0,60,30.29,10.0,SE,17.3,28.8,N/A,,Clear,140,2014-03-06 20:55:00
4:55 PM,21.0,9.0,60,30.25,10.0,SSE,17.3,25.3,N/A,,Clear,150,2014-03-06 21:55:00
5:55 PM,19.9,9.0,62,30.22,10.0,SE,12.7,-,N/A,,Clear,130,2014-03-06 22:55:00
6:55 PM,17.1,8.1,68,30.20,10.0,SE,11.5,-,N/A,,Clear,130,2014-03-06 23:55:00
7:55 PM,15.1,8.1,74,30.20,10.0,ESE,8.1,-,N/A,,Clear,120,2014-03-07 00:55:00
8:55 PM,14.0,8.1,77,30.17,10.0,East,6.9,-,N/A,,Clear,100,2014-03-07 01:55:00
9:55 PM,12.9,7.0,77,30.14,10.0,ESE,8.1,-,N/A,,Clear,110,2014-03-07 02:55:00
10:55 PM,12.9,7.0,77,30.12,10.0,ESE,8.1,-,N/A,,Clear,110,2014-03-07 03:55:00
11:55 PM,12.9,6.1,74,30.09,10.0,ESE,8.1,-,N/A,,Clear,120,2014-03-07 04:55:00